Location: Hains Lake
(37.8540°N, 99.8578°W)
Time: 04:23:09
(UTC+00:00)

Vanguard 2 Rocket - Pass Details

Date: 23 April 2021
Orbit: 553 x 3326 km, 32.9° (Epoch: 07 May)

Event Time Altitude Azimuth Distance (km) Brightness Sun altitude
Rises 22:15:27 0° 271° (W) 6,837 12.3 35.7°
Reaches altitude 10° 22:19:42 10° 270° (W) 6,021 12.4 34.9°
Maximum altitude 22:39:45 73° 191° (SSW) 3,359 10.4 31.0°
Drops below altitude 10° 22:56:59 10° 111° (ESE) 5,286 10.4 27.6°
Sets 23:00:26 0° 109° (ESE) 6,005 10.6 27.0°
